Weather History for Monticello, AR

Change the Weather History Date:

Tuesday, April 15, 2014

  Actual Average Record
Temperature  
Mean Temperature 46 °F -  
Max Temperature 55 °F 72 °F 90 °F (2006)
Min Temperature 37 °F 47 °F 30 °F (1980)
Degree Days  
Heating Degree Days 20    
Moisture  
Dew Point 29 °F    
Average Humidity 55    
Maximum Humidity 73    
Minimum Humidity 34    
Precipitation  
Precipitation 0.00 in - - ()
Sea Level Pressure  
Sea Level Pressure 30.21 in    
Wind  
Wind Speed 7 mph (NNE)    
Max Wind Speed 13 mph    
Max Gust Speed 22 mph    
Visibility 10 miles    
Events      
Averages and records for this station are not official NWS values.
T = Trace of Precipitation, MM = Missing Value Source: NWS Daily Summary

Daily Weather History Graph

Daily Weather History Graph

Search for Another Location

Airport:

Trip Planner

Search our weather history database for the weather conditions in past years. The results will help you decide how hot, cold, wet, or windy it might be!

Date:

Astronomy

Apr. 15, 2014 Rise Set
Actual Time 6:36 AM CDT 7:38 PM CDT
Civil Twilight 6:10 AM CDT 8:03 PM CDT
Nautical Twilight 5:40 AM CDT 8:34 PM CDT
Astronomical Twilight 5:09 AM CDT 9:05 PM CDT
Moon 8:17 PM CDT (4/15) 6:45 AM CDT (4/15)
Length of Visible Light 13h 52m
Length of Day
13h 01m
Full, 100% of the Moon is Illuminated
Apr 15
Full
Apr 22
Last Quarter
Apr 29
New
May 6
First Quarter
May 14
Full

Hourly Weather History & Observations

Time (CDT) Temp. Windchill Dew Point Humidity Pressure Visibility Wind Dir Wind Speed Gust Speed Precip Events Conditions
12:53 AM 43.0 °F 38.2 °F 32.0 °F 65% 30.10 in 10.0 mi NNW 8.1 mph 19.6 mph N/A   Overcast
1:53 AM 42.1 °F 36.6 °F 30.0 °F 62% 30.11 in 10.0 mi North 9.2 mph - N/A   Overcast
2:53 AM 41.0 °F 39.0 °F 30.9 °F 67% 30.13 in 10.0 mi Variable 3.5 mph - N/A   Mostly Cloudy
3:53 AM 41.0 °F 35.8 °F 30.0 °F 65% 30.15 in 10.0 mi NNW 8.1 mph - N/A   Scattered Clouds
4:53 AM 39.0 °F 33.4 °F 28.9 °F 67% 30.16 in 10.0 mi North 8.1 mph - N/A   Clear
5:53 AM 37.9 °F 33.5 °F 27.0 °F 65% 30.19 in 10.0 mi Variable 5.8 mph - N/A   Clear
6:53 AM 37.0 °F 33.3 °F 27.0 °F 67% 30.22 in 10.0 mi NNW 4.6 mph - N/A   Clear
7:53 AM 39.0 °F 34.8 °F 28.0 °F 65% 30.25 in 10.0 mi Variable 5.8 mph - N/A   Clear
8:53 AM 42.1 °F 37.1 °F 25.0 °F 51% 30.26 in 10.0 mi North 8.1 mph 18.4 mph N/A   Clear
9:53 AM 45.0 °F 39.7 °F 26.1 °F 48% 30.27 in 10.0 mi North 10.4 mph 20.7 mph N/A   Clear
10:53 AM 48.0 °F - 27.0 °F 44% 30.29 in 10.0 mi Variable 6.9 mph 16.1 mph N/A   Clear
11:53 AM 50.0 °F - 27.0 °F 41% 30.27 in 10.0 mi NNE 10.4 mph - N/A   Clear
12:53 PM 50.0 °F - 26.1 °F 39% 30.26 in 10.0 mi Variable 5.8 mph 21.9 mph N/A   Clear
1:53 PM 51.1 °F - 27.0 °F 39% 30.24 in 10.0 mi North 9.2 mph 17.3 mph N/A   Clear
2:53 PM 53.1 °F - 26.1 °F 35% 30.22 in 10.0 mi NW 12.7 mph 20.7 mph N/A   Clear
3:53 PM 53.1 °F - 25.0 °F 34% 30.21 in 10.0 mi NNE 8.1 mph 17.3 mph N/A   Clear
4:53 PM 54.0 °F - 28.0 °F 37% 30.18 in 10.0 mi Variable 5.8 mph - N/A   Clear
5:53 PM 53.1 °F - 30.0 °F 41% 30.18 in 10.0 mi NE 10.4 mph - N/A   Clear
6:53 PM 52.0 °F - 30.9 °F 45% 30.18 in 10.0 mi NE 4.6 mph - N/A   Clear
7:53 PM 48.0 °F - 34.0 °F 58% 30.20 in 10.0 mi Calm Calm - N/A   Clear
8:53 PM 45.0 °F 43.5 °F 35.1 °F 68% 30.23 in 10.0 mi ESE 3.5 mph - N/A   Clear
9:53 PM 45.0 °F 42.6 °F 34.0 °F 65% 30.25 in 10.0 mi ESE 4.6 mph - N/A   Clear
10:53 PM 43.0 °F 41.3 °F 34.0 °F 71% 30.24 in 10.0 mi East 3.5 mph - N/A   Clear
11:53 PM 42.1 °F 40.2 °F 34.0 °F 73% 30.23 in 10.0 mi ESE 3.5 mph - N/A   Clear